User: anonymous   Login
Location: Unspecified
(0.0000°N, 0.0000°E)
Time: 09:18:07
(UTC+02:00)
Language:

Ariane H10 - Orbit

View from above orbital plane
View from above orbital plane
View from above satellite
View from above satellite

Ground track
Ground track

The orbit data is extracted from the following two-line orbital elements,

1 21727U 91067B   16209.72654231 -.00000054  00000-0  15742-3 0  9992
2 21727   4.1928 102.3790 7178589 249.1437  24.8188  2.31848028170412
Epoch (UTC): 27 July 2016 17:26:13
Eccentricity: 0.7178589
inclination: 4.1928°
perigee height: 425 km
apogee height: 35045 km
right ascension of ascending node: 102.3790°
argument of perigee: 249.1437°
revolutions per day: 2.31848028
mean anomaly at epoch: 24.8188°
orbit number at epoch: 17041

The dashed part of the orbit path shows where the satellite is in the earth's shadow,  

DLR